Time,TemperatureF,DewpointF,PressureIn,WindDirection,WindDirectionDegrees,WindSpeedMPH,WindSpeedGustMPH,Humidity,HourlyPrecipIn,Conditions,Clouds,dailyrainin,SoftwareType,DateUTC
2013-03-06 00:00:00,39.3,36.3,29.66,North,0,1.0,3.0,89,0.00,,,0.46,Wunderground PWS Mod,2013-03-06 08:00:00,
2013-03-06 00:10:00,39.3,36.3,29.66,North,0,0.0,2.0,89,0.00,,,0.46,Wunderground PWS Mod,2013-03-06 08:10:00,
2013-03-06 00:20:00,39.2,36.2,29.65,North,0,1.0,2.0,89,0.00,,,0.46,Wunderground PWS Mod,2013-03-06 08:20:00,
2013-03-06 00:30:00,39.2,36.2,29.65,North,0,1.0,3.0,89,0.00,,,0.46,Wunderground PWS Mod,2013-03-06 08:30:00,
2013-03-06 00:40:00,39.2,36.2,29.65,North,0,1.0,2.0,89,0.00,,,0.46,Wunderground PWS Mod,2013-03-06 08:40:00,
2013-03-06 00:50:00,39.1,36.1,29.64,North,0,1.0,2.0,89,0.00,,,0.46,Wunderground PWS Mod,2013-03-06 08:50:00,
2013-03-06 01:00:00,38.9,35.9,29.63,North,0,1.0,2.0,89,0.00,,,0.46,Wunderground PWS Mod,2013-03-06 09:00:00,
2013-03-06 01:10:00,38.9,35.9,29.63,North,0,1.0,2.0,89,0.00,,,0.46,Wunderground PWS Mod,2013-03-06 09:10:00,
2013-03-06 01:20:00,38.9,36.2,29.63,North,0,0.0,1.0,90,0.00,,,0.46,Wunderground PWS Mod,2013-03-06 09:20:00,
2013-03-06 01:30:00,38.8,36.1,29.62,North,0,0.0,2.0,90,0.00,,,0.46,Wunderground PWS Mod,2013-03-06 09:30:00,
2013-03-06 01:40:00,38.8,36.1,29.62,North,0,1.0,2.0,90,0.00,,,0.46,Wunderground PWS Mod,2013-03-06 09:40:00,
2013-03-06 01:50:00,38.8,36.1,29.61,North,0,1.0,2.0,90,0.00,,,0.46,Wunderground PWS Mod,2013-03-06 09:50:00,
2013-03-06 02:00:00,38.6,35.9,29.61,North,0,1.0,3.0,90,0.00,,,0.46,Wunderground PWS Mod,2013-03-06 10:00:00,
2013-03-06 02:10:00,38.5,35.8,29.61,North,0,1.0,2.0,90,0.00,,,0.46,Wunderground PWS Mod,2013-03-06 10:10:00,
2013-03-06 02:20:00,38.2,35.5,29.60,North,0,1.0,2.0,90,0.00,,,0.46,Wunderground PWS Mod,2013-03-06 10:20:00,
2013-03-06 02:30:00,38.0,35.3,29.60,North,0,0.0,2.0,90,0.00,,,0.46,Wunderground PWS Mod,2013-03-06 10:30:00,
2013-03-06 02:40:00,38.0,35.3,29.60,North,0,1.0,3.0,90,0.00,,,0.46,Wunderground PWS Mod,2013-03-06 10:40:00,
2013-03-06 02:50:00,38.0,35.3,29.58,North,0,2.0,3.0,90,0.00,,,0.46,Wunderground PWS Mod,2013-03-06 10:50:00,
2013-03-06 03:00:00,37.9,35.5,29.57,NNW,338,2.0,4.0,91,0.00,,,0.46,Wunderground PWS Mod,2013-03-06 11:00:00,
2013-03-06 03:10:00,37.9,35.5,29.57,NW,315,2.0,4.0,91,0.00,,,0.46,Wunderground PWS Mod,2013-03-06 11:10:00,
2013-03-06 03:20:00,37.8,35.4,29.57,North,0,1.0,3.0,91,0.00,,,0.46,Wunderground PWS Mod,2013-03-06 11:20:00,
2013-03-06 03:50:00,37.3,34.9,29.57,NNW,338,1.0,3.0,91,0.00,,,0.46,Wunderground PWS Mod,2013-03-06 11:50:00,
2013-03-06 04:00:00,37.2,34.8,29.56,NW,315,1.0,3.0,91,0.00,,,0.46,Wunderground PWS Mod,2013-03-06 12:00:00,
2013-03-06 04:20:00,37.0,34.9,29.56,NNW,338,1.0,3.0,92,0.00,,,0.46,Wunderground PWS Mod,2013-03-06 12:20:00,
2013-03-06 04:30:00,36.9,34.8,29.56,NNW,338,1.0,3.0,92,0.00,,,0.46,Wunderground PWS Mod,2013-03-06 12:30:00,
2013-03-06 04:40:00,37.0,34.9,29.56,NNW,338,0.0,2.0,92,0.00,,,0.46,Wunderground PWS Mod,2013-03-06 12:40:00,
2013-03-06 04:50:00,37.0,34.9,29.55,NNW,338,1.0,2.0,92,0.00,,,0.46,Wunderground PWS Mod,2013-03-06 12:50:00,
2013-03-06 05:00:00,37.2,35.1,29.55,NNW,338,1.0,2.0,92,0.00,,,0.46,Wunderground PWS Mod,2013-03-06 13:00:00,
2013-03-06 05:20:00,37.2,35.1,29.55,NNW,338,1.0,2.0,92,0.00,,,0.46,Wunderground PWS Mod,2013-03-06 13:20:00,
2013-03-06 05:30:00,37.3,35.2,29.54,NNW,338,1.0,2.0,92,0.00,,,0.46,Wunderground PWS Mod,2013-03-06 13:30:00,
2013-03-06 05:50:00,37.3,35.2,29.54,NNW,338,1.0,2.0,92,0.00,,,0.46,Wunderground PWS Mod,2013-03-06 13:50:00,
2013-03-06 06:00:00,37.5,35.4,29.53,NNW,338,1.0,2.0,92,0.00,,,0.46,Wunderground PWS Mod,2013-03-06 14:00:00,
2013-03-06 06:10:00,37.5,35.4,29.53,NW,315,1.0,2.0,92,0.00,,,0.46,Wunderground PWS Mod,2013-03-06 14:10:00,
2013-03-06 06:20:00,37.5,35.4,29.53,NNW,338,1.0,3.0,92,0.00,,,0.46,Wunderground PWS Mod,2013-03-06 14:20:00,
2013-03-06 06:30:00,37.6,35.5,29.53,NNW,338,0.0,1.0,92,0.00,,,0.46,Wunderground PWS Mod,2013-03-06 14:30:00,
2013-03-06 06:50:00,37.6,35.5,29.52,NW,315,0.0,3.0,92,0.00,,,0.46,Wunderground PWS Mod,2013-03-06 14:50:00,
2013-03-06 07:00:00,37.6,35.5,29.52,NNW,338,1.0,3.0,92,0.00,,,0.46,Wunderground PWS Mod,2013-03-06 15:00:00,
2013-03-06 07:10:00,37.8,35.7,29.52,NNW,338,0.0,3.0,92,0.00,,,0.46,Wunderground PWS Mod,2013-03-06 15:10:00,
2013-03-06 07:20:00,37.8,35.7,29.52,NNW,338,1.0,3.0,92,0.00,,,0.46,Wunderground PWS Mod,2013-03-06 15:20:00,
2013-03-06 07:30:00,37.9,35.8,29.53,NNW,338,0.0,2.0,92,0.00,,,0.46,Wunderground PWS Mod,2013-03-06 15:30:00,
2013-03-06 07:40:00,37.9,35.8,29.53,NNW,338,0.0,1.0,92,0.00,,,0.46,Wunderground PWS Mod,2013-03-06 15:40:00,
2013-03-06 07:50:00,38.0,35.9,29.53,NW,315,1.0,3.0,92,0.00,,,0.46,Wunderground PWS Mod,2013-03-06 15:50:00,
2013-03-06 08:00:00,38.0,35.9,29.54,NNW,338,1.0,3.0,92,0.00,,,0.46,Wunderground PWS Mod,2013-03-06 16:00:00,
2013-03-06 08:10:00,38.2,36.1,29.54,NNW,338,1.0,3.0,92,0.00,,,0.46,Wunderground PWS Mod,2013-03-06 16:10:00,
2013-03-06 08:20:00,38.3,36.2,29.54,NNW,338,1.0,3.0,92,0.00,,,0.46,Wunderground PWS Mod,2013-03-06 16:20:00,
2013-03-06 08:30:00,38.5,36.4,29.54,NNW,338,1.0,4.0,92,0.00,,,0.46,Wunderground PWS Mod,2013-03-06 16:30:00,
2013-03-06 08:40:00,38.6,36.5,29.54,North,0,2.0,3.0,92,0.00,,,0.46,Wunderground PWS Mod,2013-03-06 16:40:00,
2013-03-06 08:50:00,38.6,36.5,29.54,NNW,338,1.0,3.0,92,0.00,,,0.46,Wunderground PWS Mod,2013-03-06 16:50:00,
2013-03-06 09:00:00,38.6,36.5,29.54,NNW,338,1.0,3.0,92,0.00,,,0.46,Wunderground PWS Mod,2013-03-06 17:00:00,
2013-03-06 09:10:00,38.8,36.7,29.54,NNW,338,1.0,3.0,92,0.00,,,0.46,Wunderground PWS Mod,2013-03-06 17:10:00,
2013-03-06 09:20:00,38.8,36.7,29.54,NNW,338,1.0,3.0,92,0.00,,,0.46,Wunderground PWS Mod,2013-03-06 17:20:00,
2013-03-06 09:30:00,38.9,36.8,29.54,NNW,338,1.0,3.0,92,0.00,,,0.46,Wunderground PWS Mod,2013-03-06 17:30:00,
2013-03-06 09:40:00,39.1,37.0,29.54,NW,315,0.0,2.0,92,0.00,,,0.46,Wunderground PWS Mod,2013-03-06 17:40:00,
2013-03-06 09:50:00,39.2,37.1,29.55,North,0,1.0,3.0,92,0.00,,,0.46,Wunderground PWS Mod,2013-03-06 17:50:00,
2013-03-06 10:10:00,39.3,37.2,29.55,NNW,338,1.0,3.0,92,0.00,,,0.46,Wunderground PWS Mod,2013-03-06 18:10:00,
2013-03-06 10:20:00,39.5,37.4,29.56,NNW,338,0.0,2.0,92,0.00,,,0.46,Wunderground PWS Mod,2013-03-06 18:20:00,
2013-03-06 10:30:00,39.6,37.5,29.56,NNW,338,0.0,1.0,92,0.00,,,0.46,Wunderground PWS Mod,2013-03-06 18:30:00,
2013-03-06 10:40:00,39.8,37.7,29.56,N/A,-737280,0.0,0.0,92,0.00,,,0.46,Wunderground PWS Mod,2013-03-06 18:40:00,
2013-03-06 10:50:00,39.9,37.8,29.56,N/A,-737280,0.0,0.0,92,0.01,,,0.46,Wunderground PWS Mod,2013-03-06 18:50:00,
2013-03-06 11:00:00,40.1,38.0,29.56,N/A,-737280,0.0,0.0,92,0.01,,,0.46,Wunderground PWS Mod,2013-03-06 19:00:00,
2013-03-06 11:10:00,40.2,38.1,29.56,NNW,338,0.0,2.0,92,0.01,,,0.46,Wunderground PWS Mod,2013-03-06 19:10:00,
2013-03-06 11:20:00,40.3,38.2,29.57,NNW,338,0.0,2.0,92,0.01,,,0.46,Wunderground PWS Mod,2013-03-06 19:20:00,
2013-03-06 11:30:00,40.5,38.4,29.57,N/A,-737280,0.0,0.0,92,0.01,,,0.46,Wunderground PWS Mod,2013-03-06 19:30:00,
2013-03-06 11:40:00,40.5,38.4,29.57,NNW,338,0.0,1.0,92,0.01,,,0.46,Wunderground PWS Mod,2013-03-06 19:40:00,
2013-03-06 11:50:00,40.5,38.4,29.58,NNW,338,0.0,1.0,92,0.01,,,0.46,Wunderground PWS Mod,2013-03-06 19:50:00,
2013-03-06 12:00:00,40.5,38.6,29.58,N/A,-737280,0.0,0.0,93,0.01,,,0.46,Wunderground PWS Mod,2013-03-06 20:00:00,
2013-03-06 12:10:00,40.5,38.6,29.58,NNW,338,0.0,1.0,93,0.02,,,0.46,Wunderground PWS Mod,2013-03-06 20:10:00,
2013-03-06 12:20:00,40.5,38.6,29.59,NNW,338,0.0,1.0,93,0.02,,,0.46,Wunderground PWS Mod,2013-03-06 20:20:00,
2013-03-06 12:30:00,40.5,38.6,29.59,NNW,338,0.0,1.0,93,0.03,,,0.46,Wunderground PWS Mod,2013-03-06 20:30:00,
2013-03-06 12:40:00,40.5,38.6,29.59,NNW,338,0.0,1.0,93,0.03,,,0.46,Wunderground PWS Mod,2013-03-06 20:40:00,
2013-03-06 12:50:00,40.5,38.6,29.60,NNW,338,0.0,2.0,93,0.02,,,0.46,Wunderground PWS Mod,2013-03-06 20:50:00,
2013-03-06 13:00:00,40.5,38.6,29.60,NNW,338,0.0,3.0,93,0.03,,,0.46,Wunderground PWS Mod,2013-03-06 21:00:00,
2013-03-06 13:10:00,40.5,38.6,29.60,NNW,338,0.0,2.0,93,0.03,,,0.46,Wunderground PWS Mod,2013-03-06 21:10:00,
2013-03-06 13:20:00,40.5,38.6,29.60,NNW,338,0.0,1.0,93,0.03,,,0.46,Wunderground PWS Mod,2013-03-06 21:20:00,
2013-03-06 13:30:00,40.3,38.4,29.61,N/A,-737280,0.0,0.0,93,0.02,,,0.46,Wunderground PWS Mod,2013-03-06 21:30:00,
2013-03-06 13:40:00,40.3,38.4,29.61,N/A,-737280,0.0,0.0,93,0.02,,,0.46,Wunderground PWS Mod,2013-03-06 21:40:00,
2013-03-06 13:50:00,40.5,38.6,29.61,N/A,-737280,0.0,0.0,93,0.03,,,0.46,Wunderground PWS Mod,2013-03-06 21:50:00,
2013-03-06 14:00:00,40.5,38.6,29.62,NNW,338,0.0,2.0,93,0.03,,,0.46,Wunderground PWS Mod,2013-03-06 22:00:00,
2013-03-06 14:10:00,40.3,38.4,29.62,N/A,-737280,0.0,0.0,93,0.02,,,0.46,Wunderground PWS Mod,2013-03-06 22:10:00,
2013-03-06 14:20:00,40.3,38.4,29.62,NNW,338,0.0,1.0,93,0.03,,,0.46,Wunderground PWS Mod,2013-03-06 22:20:00,
2013-03-06 14:30:00,40.2,38.3,29.63,NNW,338,0.0,1.0,93,0.04,,,0.46,Wunderground PWS Mod,2013-03-06 22:30:00,
2013-03-06 14:40:00,40.2,38.3,29.63,N/A,-737280,0.0,0.0,93,0.04,,,0.46,Wunderground PWS Mod,2013-03-06 22:40:00,
2013-03-06 14:50:00,40.1,38.2,29.64,N/A,-737280,0.0,0.0,93,0.03,,,0.46,Wunderground PWS Mod,2013-03-06 22:50:00,
2013-03-06 15:00:00,40.1,38.2,29.65,N/A,-737280,0.0,0.0,93,0.02,,,0.46,Wunderground PWS Mod,2013-03-06 23:00:00,
2013-03-06 15:10:00,40.1,38.2,29.65,NNW,338,0.0,2.0,93,0.02,,,0.46,Wunderground PWS Mod,2013-03-06 23:10:00,
2013-03-06 15:20:00,39.9,38.0,29.66,NNW,338,0.0,1.0,93,0.02,,,0.46,Wunderground PWS Mod,2013-03-06 23:20:00,
2013-03-06 15:30:00,39.9,38.0,29.66,NNW,338,0.0,1.0,93,0.02,,,0.46,Wunderground PWS Mod,2013-03-06 23:30:00,
2013-03-06 15:40:00,39.8,37.9,29.66,NNW,338,0.0,1.0,93,0.03,,,0.46,Wunderground PWS Mod,2013-03-06 23:40:00,
2013-03-06 15:50:00,39.8,37.9,29.67,NNW,338,0.0,2.0,93,0.04,,,0.46,Wunderground PWS Mod,2013-03-06 23:50:00,
2013-03-06 16:00:00,39.6,37.5,29.67,NNW,338,0.0,2.0,92,0.05,,,0.46,Wunderground PWS Mod,2013-03-07 00:00:00,
2013-03-06 16:10:00,39.5,37.4,29.67,NNW,338,0.0,1.0,92,0.06,,,0.46,Wunderground PWS Mod,2013-03-07 00:10:00,
2013-03-06 16:20:00,39.3,37.2,29.68,NNW,338,0.0,1.0,92,0.06,,,0.46,Wunderground PWS Mod,2013-03-07 00:20:00,
2013-03-06 16:30:00,39.3,37.2,29.69,NNW,338,0.0,1.0,92,0.06,,,0.46,Wunderground PWS Mod,2013-03-07 00:30:00,
2013-03-06 16:40:00,39.2,37.1,29.69,NNW,338,0.0,1.0,92,0.05,,,0.46,Wunderground PWS Mod,2013-03-07 00:40:00,
2013-03-06 16:50:00,39.2,37.1,29.69,NNW,338,0.0,1.0,92,0.05,,,0.46,Wunderground PWS Mod,2013-03-07 00:50:00,
2013-03-06 17:50:00,38.6,36.5,29.71,N/A,-737280,0.0,0.0,92,0.05,,,0.46,Wunderground PWS Mod,2013-03-07 01:50:00,
2013-03-06 18:00:00,38.6,36.5,29.72,N/A,-737280,0.0,0.0,92,0.05,,,0.46,Wunderground PWS Mod,2013-03-07 02:00:00,
2013-03-06 18:10:00,38.6,36.5,29.72,NNW,338,0.0,1.0,92,0.05,,,0.46,Wunderground PWS Mod,2013-03-07 02:10:00,
2013-03-06 18:30:00,38.8,36.9,29.73,NNW,338,0.0,1.0,93,0.06,,,0.46,Wunderground PWS Mod,2013-03-07 02:30:00,
2013-03-06 18:40:00,38.8,36.9,29.73,ESE,113,0.0,1.0,93,0.05,,,0.46,Wunderground PWS Mod,2013-03-07 02:40:00,
2013-03-06 18:50:00,38.9,37.0,29.74,ESE,113,0.0,1.0,93,0.06,,,0.46,Wunderground PWS Mod,2013-03-07 02:50:00,
2013-03-06 19:20:00,39.1,37.2,29.75,SSE,158,2.0,4.0,93,0.07,,,0.46,Wunderground PWS Mod,2013-03-07 03:20:00,
2013-03-06 19:30:00,38.9,37.0,29.75,South,180,2.0,4.0,93,0.06,,,0.46,Wunderground PWS Mod,2013-03-07 03:30:00,
2013-03-06 19:40:00,38.6,36.8,29.75,SSE,158,2.0,6.0,93,0.06,,,0.46,Wunderground PWS Mod,2013-03-07 03:40:00,
2013-03-06 19:50:00,38.5,36.7,29.75,South,180,2.0,5.0,93,0.05,,,0.46,Wunderground PWS Mod,2013-03-07 03:50:00,
2013-03-06 20:00:00,38.3,36.5,29.76,South,180,2.0,6.0,93,0.05,,,0.46,Wunderground PWS Mod,2013-03-07 04:00:00,
2013-03-06 20:10:00,38.0,36.2,29.76,SSW,203,3.0,7.0,93,0.04,,,0.46,Wunderground PWS Mod,2013-03-07 04:10:00,
2013-03-06 20:20:00,37.9,36.3,29.77,South,180,2.0,3.0,94,0.03,,,0.46,Wunderground PWS Mod,2013-03-07 04:20:00,
2013-03-06 20:30:00,37.8,36.2,29.77,South,180,3.0,9.0,94,0.03,,,0.46,Wunderground PWS Mod,2013-03-07 04:30:00,
2013-03-06 20:40:00,37.8,36.2,29.77,SSE,158,2.0,5.0,94,0.04,,,0.46,Wunderground PWS Mod,2013-03-07 04:40:00,
2013-03-06 20:50:00,37.6,36.0,29.78,South,180,3.0,6.0,94,0.03,,,0.46,Wunderground PWS Mod,2013-03-07 04:50:00,
2013-03-06 21:00:00,37.6,36.0,29.78,SSE,158,2.0,5.0,94,0.03,,,0.46,Wunderground PWS Mod,2013-03-07 05:00:00,
2013-03-06 21:10:00,37.6,36.0,29.78,South,180,2.0,3.0,94,0.04,,,0.46,Wunderground PWS Mod,2013-03-07 05:10:00,
2013-03-06 21:20:00,37.5,35.9,29.79,SSW,203,2.0,5.0,94,0.04,,,0.46,Wunderground PWS Mod,2013-03-07 05:20:00,
2013-03-06 21:30:00,37.3,35.7,29.80,South,180,2.0,10.0,94,0.03,,,0.46,Wunderground PWS Mod,2013-03-07 05:30:00,
2013-03-06 21:40:00,37.3,35.7,29.80,South,180,2.0,4.0,94,0.02,,,0.46,Wunderground PWS Mod,2013-03-07 05:40:00,
2013-03-06 21:50:00,37.2,35.6,29.80,South,180,2.0,5.0,94,0.02,,,0.46,Wunderground PWS Mod,2013-03-07 05:50:00,
2013-03-06 22:00:00,37.2,35.6,29.81,South,180,2.0,4.0,94,0.01,,,0.46,Wunderground PWS Mod,2013-03-07 06:00:00,
2013-03-06 22:10:00,37.2,35.6,29.81,South,180,1.0,4.0,94,0.00,,,0.46,Wunderground PWS Mod,2013-03-07 06:10:00,
2013-03-06 22:20:00,37.2,35.6,29.82,South,180,2.0,3.0,94,0.01,,,0.46,Wunderground PWS Mod,2013-03-07 06:20:00,
2013-03-06 22:30:00,37.2,35.6,29.82,South,180,2.0,5.0,94,0.02,,,0.46,Wunderground PWS Mod,2013-03-07 06:30:00,
2013-03-06 22:40:00,37.3,35.7,29.82,South,180,1.0,3.0,94,0.02,,,0.46,Wunderground PWS Mod,2013-03-07 06:40:00,
2013-03-06 22:50:00,37.3,35.7,29.83,South,180,2.0,4.0,94,0.02,,,0.46,Wunderground PWS Mod,2013-03-07 06:50:00,
2013-03-06 23:00:00,37.5,36.2,29.83,South,180,1.0,3.0,95,0.03,,,0.46,Wunderground PWS Mod,2013-03-07 07:00:00,
2013-03-06 23:10:00,37.6,36.3,29.83,South,180,1.0,3.0,95,0.04,,,0.46,Wunderground PWS Mod,2013-03-07 07:10:00,
2013-03-06 23:20:00,37.6,36.3,29.83,South,180,1.0,3.0,95,0.03,,,0.46,Wunderground PWS Mod,2013-03-07 07:20:00,
2013-03-06 23:30:00,37.6,36.3,29.83,SSE,158,1.0,4.0,95,0.03,,,0.46,Wunderground PWS Mod,2013-03-07 07:30:00,
2013-03-06 23:40:00,37.8,36.5,29.83,South,180,1.0,2.0,95,0.04,,,0.46,Wunderground PWS Mod,2013-03-07 07:40:00,
2013-03-06 23:50:00,37.8,36.5,29.84,South,180,1.0,4.0,95,0.04,,,0.46,Wunderground PWS Mod,2013-03-07 07:50:00,